TimeCST,TemperatureF,Dew PointF,Humidity,Sea Level PressureIn,VisibilityMPH,Wind Direction,Wind SpeedMPH,Gust SpeedMPH,PrecipitationIn,Events,Conditions,WindDirDegrees,DateUTC
12:14 AM,15.8,12.2,86,29.81,10.0,SW,5.8,-,N/A,,Mostly Cloudy,220,2013-02-13 06:14:00
12:33 AM,17.6,15.8,93,29.80,10.0,SW,5.8,-,N/A,,Overcast,230,2013-02-13 06:33:00
12:53 AM,19.4,15.8,86,29.80,10.0,WSW,6.9,-,N/A,,Overcast,240,2013-02-13 06:53:00
1:13 AM,19.4,15.8,86,29.79,10.0,WSW,8.1,-,N/A,,Overcast,250,2013-02-13 07:13:00
1:33 AM,17.6,15.8,93,29.79,10.0,WSW,5.8,-,N/A,,Scattered Clouds,240,2013-02-13 07:33:00
1:53 AM,17.6,15.8,93,29.79,10.0,West,6.9,-,N/A,,Clear,270,2013-02-13 07:53:00
2:13 AM,17.6,15.8,93,29.79,10.0,WSW,8.1,-,N/A,,Scattered Clouds,250,2013-02-13 08:13:00
2:33 AM,17.6,15.8,93,29.78,10.0,WSW,6.9,-,N/A,,Mostly Cloudy,240,2013-02-13 08:33:00
2:54 AM,19.4,17.6,93,29.78,10.0,WSW,5.8,-,N/A,,Mostly Cloudy,250,2013-02-13 08:54:00
3:13 AM,19.4,17.6,93,29.77,10.0,WSW,4.6,-,N/A,,Overcast,250,2013-02-13 09:13:00
3:33 AM,19.4,17.6,93,29.77,10.0,WSW,3.5,-,N/A,,Overcast,250,2013-02-13 09:33:00
3:54 AM,19.4,17.6,93,29.76,10.0,WSW,3.5,-,N/A,,Overcast,250,2013-02-13 09:54:00
4:13 AM,21.2,19.4,93,29.76,10.0,WSW,4.6,-,N/A,,Overcast,240,2013-02-13 10:13:00
4:33 AM,24.8,21.2,86,29.75,10.0,SW,3.5,-,N/A,,Overcast,220,2013-02-13 10:33:00
4:53 AM,24.8,21.2,86,29.75,10.0,SW,3.5,-,N/A,,Overcast,220,2013-02-13 10:53:00
5:13 AM,26.6,21.2,80,29.73,10.0,SSW,6.9,-,N/A,,Overcast,200,2013-02-13 11:13:00
5:34 AM,26.6,21.2,80,29.72,10.0,South,4.6,-,N/A,,Overcast,190,2013-02-13 11:34:00
5:53 AM,26.6,23.0,86,29.71,10.0,South,4.6,-,N/A,,Overcast,190,2013-02-13 11:53:00
6:13 AM,26.6,21.2,80,29.71,10.0,SW,4.6,-,N/A,,Mostly Cloudy,220,2013-02-13 12:13:00
6:33 AM,24.8,21.2,86,29.70,10.0,SSW,4.6,-,N/A,,Scattered Clouds,210,2013-02-13 12:33:00
6:54 AM,24.8,19.4,80,29.70,10.0,SW,4.6,-,N/A,,Clear,220,2013-02-13 12:54:00
7:13 AM,21.2,19.4,93,29.70,10.0,SSW,4.6,-,N/A,,Clear,210,2013-02-13 13:13:00
7:33 AM,23.0,21.2,93,29.70,10.0,SW,3.5,-,N/A,,Clear,230,2013-02-13 13:33:00
7:54 AM,21.2,17.6,86,29.70,10.0,SW,4.6,-,N/A,,Clear,230,2013-02-13 13:54:00
8:13 AM,23.0,19.4,86,29.70,10.0,WSW,4.6,-,N/A,,Clear,240,2013-02-13 14:13:00
8:33 AM,24.8,19.4,80,29.70,10.0,WSW,4.6,-,N/A,,Clear,240,2013-02-13 14:33:00
8:54 AM,26.6,19.4,74,29.70,10.0,Calm,Calm,-,N/A,,Clear,0,2013-02-13 14:54:00
9:14 AM,24.8,19.4,80,29.69,10.0,SW,4.6,-,N/A,,Clear,220,2013-02-13 15:14:00
9:34 AM,26.6,21.2,80,29.68,10.0,SSW,3.5,-,N/A,,Clear,200,2013-02-13 15:34:00
9:54 AM,30.2,21.2,69,29.68,10.0,South,4.6,-,N/A,,Mostly Cloudy,190,2013-02-13 15:54:00
10:13 AM,30.2,23.0,75,29.67,10.0,South,3.5,-,N/A,,Overcast,190,2013-02-13 16:13:00
10:34 AM,30.2,23.0,75,29.67,10.0,South,3.5,-,N/A,,Overcast,190,2013-02-13 16:34:00
11:13 AM,32.0,24.8,75,29.67,10.0,SW,4.6,-,N/A,,Mostly Cloudy,220,2013-02-13 17:13:00
11:33 AM,33.8,24.8,70,29.67,10.0,Calm,Calm,-,N/A,,Scattered Clouds,0,2013-02-13 17:33:00
11:53 AM,33.8,24.8,70,29.66,10.0,Calm,Calm,-,0.01,,Scattered Clouds,0,2013-02-13 17:53:00
12:13 PM,35.6,26.6,70,29.65,10.0,WSW,3.5,-,0.01,,Scattered Clouds,240,2013-02-13 18:13:00
12:53 PM,35.6,26.6,70,29.64,10.0,SW,4.6,-,0.04,,Clear,220,2013-02-13 18:53:00
1:13 PM,35.6,24.8,65,29.62,10.0,Calm,Calm,-,0.01,,Scattered Clouds,0,2013-02-13 19:13:00
1:33 PM,35.6,26.6,70,29.62,10.0,WSW,3.5,-,0.03,,Scattered Clouds,240,2013-02-13 19:33:00
1:53 PM,37.4,28.4,70,29.61,10.0,Calm,Calm,-,0.04,,Clear,0,2013-02-13 19:53:00
2:13 PM,35.6,28.4,75,29.59,1.5,SSE,4.6,-,0.01,Snow,Light Snow,160,2013-02-13 20:13:00
2:34 PM,33.8,30.2,87,29.58,1.0,SE,5.8,-,0.01,Snow,Light Snow,130,2013-02-13 20:34:00
2:53 PM,33.8,30.2,87,29.57,7.0,ESE,5.8,-,0.03,Snow,Light Snow,120,2013-02-13 20:53:00
3:14 PM,33.8,30.2,87,29.57,5.0,SE,5.8,-,0.01,Rain,Light Rain,130,2013-02-13 21:14:00
3:34 PM,33.8,30.2,87,29.57,1.5,South,6.9,-,0.01,Snow,Light Snow,190,2013-02-13 21:34:00
3:53 PM,33.8,30.2,87,29.58,1.5,SSW,8.1,-,0.02,Snow,Light Snow,200,2013-02-13 21:53:00
4:13 PM,33.8,32.0,93,29.57,2.0,South,8.1,-,N/A,Snow,Light Snow,190,2013-02-13 22:13:00
4:33 PM,33.8,32.0,93,29.57,1.0,SSW,6.9,-,0.01,Snow,Light Snow,200,2013-02-13 22:33:00
4:53 PM,33.8,32.0,93,29.57,1.2,SSW,5.8,-,0.01,Snow,Light Snow,200,2013-02-13 22:53:00
5:13 PM,33.8,32.0,93,29.56,1.5,South,8.1,-,N/A,Snow,Light Snow,190,2013-02-13 23:13:00
5:33 PM,33.8,32.0,93,29.56,7.0,SW,6.9,-,0.01,Snow,Light Snow,220,2013-02-13 23:33:00
5:53 PM,33.8,32.0,93,29.56,7.0,SW,6.9,-,0.01,,Overcast,230,2013-02-13 23:53:00
6:13 PM,33.8,32.0,93,29.56,7.0,SW,5.8,-,N/A,,Overcast,220,2013-02-14 00:13:00
6:33 PM,33.8,32.0,93,29.56,7.0,WSW,3.5,-,N/A,,Overcast,240,2013-02-14 00:33:00
6:53 PM,33.8,32.0,93,29.56,10.0,WSW,6.9,-,N/A,,Overcast,250,2013-02-14 00:53:00
7:13 PM,33.8,32.0,93,29.57,10.0,West,8.1,-,N/A,,Overcast,270,2013-02-14 01:13:00
7:33 PM,33.8,32.0,93,29.58,10.0,WNW,13.8,-,N/A,,Overcast,300,2013-02-14 01:33:00
7:53 PM,33.8,30.2,87,29.59,10.0,NW,16.1,21.9,N/A,,Overcast,310,2013-02-14 01:53:00
8:13 PM,33.8,30.2,87,29.59,10.0,NW,17.3,-,N/A,,Overcast,320,2013-02-14 02:13:00
8:33 PM,32.0,30.2,93,29.60,10.0,NNW,15.0,-,N/A,,Overcast,330,2013-02-14 02:33:00
8:54 PM,30.2,28.4,93,29.61,5.0,NNW,18.4,24.2,N/A,Snow,Light Snow,340,2013-02-14 02:54:00
9:13 PM,30.2,28.4,93,29.62,3.0,NNW,16.1,-,N/A,Snow,Light Snow,340,2013-02-14 03:13:00
9:33 PM,30.2,28.4,93,29.63,2.5,NNW,17.3,20.7,N/A,Snow,Light Snow,330,2013-02-14 03:33:00
9:53 PM,30.2,28.4,93,29.64,3.0,NNW,16.1,-,N/A,Snow,Light Snow,330,2013-02-14 03:53:00
10:14 PM,30.2,28.4,93,29.65,4.0,NNW,18.4,-,N/A,Snow,Light Snow,330,2013-02-14 04:14:00
10:33 PM,30.2,28.4,93,29.66,4.0,NNW,18.4,-,N/A,Snow,Light Snow,330,2013-02-14 04:33:00
10:53 PM,28.4,26.6,93,29.67,4.0,NNW,18.4,23.0,N/A,Snow,Light Snow,330,2013-02-14 04:53:00
11:13 PM,28.4,26.6,93,29.68,5.0,NNW,18.4,23.0,N/A,,Overcast,330,2013-02-14 05:13:00
11:33 PM,26.6,24.8,93,29.70,7.0,NW,18.4,-,N/A,,Overcast,320,2013-02-14 05:33:00
11:54 PM,26.6,24.8,93,29.71,7.0,NW,19.6,-,N/A,,Overcast,320,2013-02-14 05:54:00